Regional Weather Roundup
Issued by NWS

Home | Current Version | Previous Version | Graphics & Text | Print | Product List | Glossary On
Versions: 1 2 3 4 5 6 7 8 9 10 11 12 13 14 15 16 17 18 19 20 21 22 23 24 25 26 27 28 29 30 31 32 33 34 35 36 37 38 39 40 41 42 43 44 45 46 47 48 49 50
000
ASUS44 KMEG 271100
RWRTN
TENNESSEE HOURLY STATE WEATHER ROUNDUP
NATIONAL WEATHER SERVICE MEMPHIS TN
600 AM CDT SAT AUG 27 2016

TNZ002-004-019-021-049-052-054-088>092-271200-
WEST TENNESSEE

CITY           SKY/WX    TMP DP  RH WIND       PRES   REMARKS
MEMPHIS INTL   PTCLDY    73  69  87 CALM      30.03R
NWS MEMPHIS      N/A     69 N/A N/A MISG        N/A
JACKSON        CLEAR     69  69 100 CALM      30.04R FOG
DYERSBURG      PTCLDY   N/A N/A N/A MISG        N/A
UNION CITY     CLEAR     70  70 100 CALM      30.04S
PARIS          CLEAR     68  68 100 CALM      30.07R
$$

TNZ008-025-027-028-033-062-065-066-271200-
NORTH MIDDLE TENNESSEE

CITY           SKY/WX    TMP DP  RH WIND       PRES   REMARKS
NASHVILLE      PTCLDY    73  70  90 CALM      30.06S
CLARKSVILLE    PTCLDY    71  69  93 CALM      30.06R
COOKEVILLE     CLEAR     72  72 100 CALM      30.08R
CROSSVILLE     CLEAR     68  68 100 CALM      30.15S FOG
$$

TNZ061-075-076-078-094-096-097-271200-
SOUTH MIDDLE TENNESSEE

CITY           SKY/WX    TMP DP  RH WIND       PRES   REMARKS
TULLAHOMA      CLEAR     70  66  88 CALM      30.10R
WINCHESTER     CLEAR     70  70 100 CALM      30.09R
MCMINNVILLE    CLEAR     72  72 100 CALM      30.09R
COLUMBIA       CLOUDY   N/A N/A N/A CALM      30.06R VSB 1/4
SHELBYVILLE    CLEAR     72  72 100 CALM      30.09R
$$

TNZ017-018-042-046-047-271200-
NORTHEAST TENNESSEE

CITY           SKY/WX    TMP DP  RH WIND       PRES   REMARKS
TRI CITIES     MOCLDY    66  65  96 CALM      30.16S FOG
$$

TNZ012-013-036-069-073-074-271200-
CENTRAL EAST TENNESSEE

CITY           SKY/WX    TMP DP  RH WIND       PRES   REMARKS
KNOXVILLE      PTCLDY    72  69  90 NE5       30.10R
GATLINBURG     CLEAR     68  66  94 CALM      30.11R
$$

TNZ083-085-099-271200-
SOUTHEAST TENNESSEE

CITY           SKY/WX    TMP DP  RH WIND       PRES   REMARKS
CHATTANOOGA    PTCLDY    73  71  93 CALM      30.09R FOG
$$

SKY/WX REPORTED AS FAIR MEANS FEW OR NO CLOUDS BELOW
12 THOUSAND FEET.





USA.gov is the U.S. government's official web portal to all federal, state and local government web resources and services.